RH
47 41 49 57 55 48 38 29 38 63 90 100 100 100 100 95 78 64 58 65 79 84 86 86 90 99 93 88 92 96 93 86 87 97 76 59 59 65 70 88 100 100 100
48 36 41 52 61 64 56 38 33 38 37 40 43 44 42 46 61 80 92 99 87 77 63 73 88 96 100 100 100 100 100 91 91 100 100 100 100 100 100 100 100 100 100
55 46 41 49 49 44 49 52 49 41 42 43 43 38 37 36 35 32 27 30 30 33 46 48 41 38 38 39 61 89 92 95 99 100 100 100 100 100 99 96 74 56 51
88 56 41 40 51 61 62 49 52 50 46 47 53 57 54 42 38 32 32 35 35 34 35 39 38 38 42 43 43 42 46 43 47 41 51 60 57 56 55 59 60 68 56
96 72 49 46 47 52 64 75 90 95 98 87 77 72 66 71 60 55 48 42 39 36 34 34 35 34 35 39 44 48 50 58 56 52 50 54 64 76 81 82 84 93 97
89 84 65 61 53 51 49 48 56 60 71 78 86 85 75 72 69 67 65 61 52 48 47 47 45 49 51 52 53 53 51 48 43 47 49 45 74 93 93 80 90 94 93
100 79 72 51 50 55 52 51 56 64 71 67 73 70 71 87 84 79 80 80 71 66 70 75 75 70 73 75 82 82 78 71 65 58 50 45 43 46 60 72 73 69 81
100 74 66 63 56 57 56 55 65 65 71 84 94 92 86 91 97 92 87 84 84 71 60 59 66 70 74 81 92 94 90 79 77 80 82 83 80 74 76 68 66 77 79
100 85 84 88 91 75 51 48 56 60 65 75 98 99 94 99 91 90 96 90 80 74 72 73 72 74 82 86 94 99 96 86 80 80 77 75 77 79 73 73 70 77 78
100 90 82 100 100 96 66 48 52 79 89 83 87 86 79 72 79 82 79 81 73 57 57 72 85 82 68 76 82 87 84 78 70 73 87 84 71 68 68 84 93 94 89
99 100 100 100 100 93 88 92 97 100 99 83 64 67 61 55 74 70 64 64 80 89 88 100 98 82 63 65 83 93 98 89 89 86 82 83 81 64 64 71 80 87 94
100 100 100 100 100 98 100 100 99 95 84 73 62 56 58 64 70 90 99 97 100 100 99 79 66 58 76 84 88 85 76 85 82 84 95 100 100 96 91 95 99 100 100
100 100 100 100 100 100 99 100 100 100 95 88 87 75 76 89 100 100 100 100 100 100 100 94 100 96 78 71 77 76 67 71 82 92 86 81 79 87 95 95 100 94 93
100 100 98 98 100 100 100 100 100 100 100 97 88 93 99 100 100 100 100 88 99 100 100 99 98 96 67 46 55 64 56 56 62 68 60 51 53 58 61 72 76 69 66
100 100 100 100 100 100 100 100 100 100 100 100 96 92 81 70 66 67 82 85 83 66 52 48 53 45 50 47 48 49 62 57 58 55 56 53 56 70 74 76 73 74 67
100 100 100 100 100 100 100 100 100 100 100 100 100 96 71 64 51 47 38 38 47 46 51 65 62 57 50 52 48 50 57 72 68 52 48 52 48 41 38 34 31 28 27
100 100 98 100 100 100 100 100 100 91 79 62 45 35 40 41 44 56 65 73 77 77 72 78 63 63 61 56 55 61 61 52 45 36 35 36 34 30 23 18 16 17 16
95 92 88 84 78 72 69 65 58 51 45 50 59 65 72 78 84 92 92 81 73 80 81 65 60 62 59 64 51 49 47 39 31 30 25 23 20 17 16 14 13 12 9
66 66 66 64 59 62 64 66 68 77 89 98 100 100 100 87 81 90 89 80 67 66 70 68 63 65 72 65 40 32 31 27 24 22 14 14 13 11 10 9 8 8 8
89 82 78 80 82 79 79 78 81 80 68 69 80 85 94 86 85 86 73 63 63 64 66 69 60 42 41 39 30 24 23 18 16 13 11 10 9 8 8 8 8 6 6
71 68 67 68 67 66 67 66 66 72 73 70 72 81 97 90 89 82 69 66 62 55 50 42 38 32 26 20 16 14 12 11 10 9 8 8 8 8 5 5 6 7 7
68 71 71 65 59 56 52 52 51 52 59 70 73 71 70 68 66 63 55 48 46 43 34 25 19 15 12 11 10 10 9 8 8 8 8 7 5 5 6 6 6 6 7
50 49 46 39 35 36 38 41 42 38 36 36 36 37 36 32 28 22 20 19 18 16 13 11 11 10 9 8 8 8 8 8 7 6 5 5 6 6 6 6 6 7 8
24 21 22 24 24 22 22 22 20 18 16 16 16 16 15 14 12 10 10 10 10 10 9 8 8 8 8 8 7 7 6 6 6 5 5 5 6 6 7 7 7 6 5
22 20 20 18 16 15 15 13 12 11 10 10 10 10 10 9 9 8 8 8 8 8 8 7 7 7 6 6 6 6 5 5 6 6 7 7 6 5 4 4 4 3 3
14 13 12 11 10 10 10 10 10 9 9 9 8 8 8 8 8 7 7 8 7 7 6 6 5 5 5 5 5 6 6 7 6 5 4 4 4 3 3 3 3 3 3
Wind_Speed
37 32 31 27 24 22 20 20 18 19 25 32 39 43 42 42 41 38 37 39 41 43 45 46 46 47 49 50 51 51 50 50 49 51 50 50 49 52 54 56 61 66 70
40 35 31 31 29 28 26 26 24 22 23 23 22 22 23 25 28 32 37 42 45 46 45 46 48 51 57 59 58 56 55 57 52 54 58 59 58 63 64 65 63 58 57
42 43 38 34 33 33 30 29 28 27 26 25 25 27 27 27 29 30 30 29 28 30 33 35 33 34 37 38 41 44 46 48 48 46 52 52 50 48 49 49 49 54 55
42 48 45 39 36 36 34 33 32 31 31 30 30 29 29 30 31 33 34 34 35 35 35 36 38 39 40 40 40 42 43 44 44 44 45 48 48 53 52 54 56 55 56
45 48 47 46 44 42 40 38 36 34 35 37 38 37 35 38 39 38 38 39 40 40 40 42 43 43 45 45 47 52 52 52 51 51 52 56 55 57 61 63 61 63 62
49 50 50 48 49 48 46 45 44 42 41 43 45 45 46 45 44 45 45 45 45 46 47 48 49 51 53 52 53 56 58 57 58 58 59 59 61 66 68 68 66 66 64
53 54 54 55 52 52 52 51 50 48 45 45 45 45 45 47 49 50 52 53 51 49 51 55 58 59 60 61 62 62 63 65 62 63 63 64 65 68 73 74 76 75 73
58 59 57 57 57 57 58 56 55 53 51 48 48 48 49 51 52 54 56 54 55 58 59 60 62 63 63 65 68 69 71 70 69 71 71 72 73 73 75 75 78 80 82
59 61 60 61 62 64 63 61 59 58 56 54 55 56 56 57 58 59 59 62 65 66 66 66 66 66 68 70 71 74 76 75 75 76 77 76 77 78 78 80 81 83 83
61 61 62 61 62 65 68 67 63 60 60 62 63 64 62 63 66 68 69 70 72 73 72 72 72 72 72 74 76 79 81 81 80 80 83 85 85 84 83 82 84 88 90
63 61 63 57 68 69 68 66 65 66 68 70 71 72 71 72 74 76 78 77 77 80 79 79 79 80 77 78 80 82 85 87 89 91 91 92 92 91 90 90 94 95 94
66 64 65 68 70 70 71 76 74 75 77 79 78 78 79 80 79 81 80 82 84 82 84 85 84 84 85 86 87 89 91 94 96 97 98 97 97 98 100 99 98 98 100
74 76 76 79 76 79 80 82 83 84 85 85 84 84 84 85 84 81 82 84 86 89 89 89 90 91 92 92 94 93 94 96 99 96 95 98 101 102 103 102 98 99 101
73 74 76 77 81 86 86 87 87 86 89 88 89 87 87 85 86 89 92 91 92 95 97 98 99 99 101 94 93 93 95 95 96 99 103 103 104 105 104 104 108 111 112
81 81 81 81 83 84 87 89 92 90 90 92 92 92 93 94 95 97 99 100 100 99 99 100 98 99 102 101 102 100 101 101 102 103 105 109 111 111 112 115 118 121 122
85 84 85 86 88 91 93 94 94 96 96 98 99 100 101 101 102 103 104 101 101 100 103 103 106 108 105 106 108 111 109 111 113 111 112 114 113 113 115 116 120 123 122
92 92 93 94 95 96 98 99 102 104 105 107 108 107 104 103 103 105 106 107 108 111 112 114 115 113 111 112 115 117 118 117 116 114 112 114 114 115 117 117 115 113 113
96 97 100 102 104 105 106 108 108 110 109 108 109 107 108 111 112 113 115 117 118 119 118 117 118 118 120 119 118 118 119 117 114 114 114 114 111 109 109 107 108 107 105
100 101 103 104 105 106 107 109 110 111 113 113 115 116 117 118 118 119 121 123 122 122 122 123 123 123 125 124 120 119 118 116 114 112 107 106 104 102 101 100 99 98 97
109 111 112 114 115 115 117 118 119 121 122 122 123 123 122 123 125 127 127 125 126 127 128 129 127 123 122 122 120 117 112 109 106 104 101 98 96 95 94 93 92 92 90
118 119 121 123 123 124 125 126 125 124 127 128 130 132 134 133 131 130 131 132 131 128 126 124 122 121 118 114 109 106 103 101 99 97 94 93 92 90 88 86 84 84 84
115 117 118 118 118 118 118 119 118 118 119 122 124 125 126 126 125 125 123 121 121 121 118 115 112 109 105 102 99 97 95 95 94 93 92 90 88 85 83 82 82 81 80
109 111 110 109 108 109 109 110 110 110 109 109 108 109 110 111 111 110 110 109 108 107 106 103 102 99 97 95 94 94 92 91 89 87 85 83 81 81 80 79 78 77 76
97 95 94 95 96 96 97 98 98 98 99 99 100 100 100 101 100 99 99 98 98 97 95 95 95 94 92 91 91 90 87 85 83 81 80 79 78 77 78 77 77 77 76
94 94 95 95 95 95 95 95 95 95 94 95 95 95 95 94 93 92 92 92 93 93 91 90 90 89 88 87 85 83 81 80 78 78 78 77 76 75 75 75 74 73 72
90 90 91 91 91 91 91 91 91 91 90 90 89 89 90 90 89 88 88 88 88 88 87 86 85 84 82 81 80 78 78 78 77 75 74 74 73 72 71 70 69 69 68
Wind_Direction
221 215 210 209 216 216 208 195 186 197 214 224 227 230 237 240 243 242 240 240 240 244 247 249 251 252 255 262 263 266 268 269 270 271 269 268 267 268 269 269 268 267 270
222 223 216 218 219 221 220 208 206 204 207 212 218 225 232 239 243 247 251 254 256 257 256 257 260 262 261 263 264 262 263 266 266 265 266 266 267 266 267 266 266 265 268
220 228 228 228 228 223 222 223 221 223 226 227 229 229 231 235 237 239 241 242 244 246 249 252 251 254 258 259 261 264 266 267 268 269 270 271 266 264 265 270 274 275 276
226 228 232 232 232 230 228 228 231 233 234 235 241 247 250 248 249 247 246 247 247 250 252 254 260 265 270 273 273 271 271 268 268 265 262 269 270 272 274 274 274 277 275
228 230 230 234 235 236 235 235 237 242 245 250 251 251 254 254 249 252 254 255 255 256 259 261 263 266 267 266 265 263 265 267 267 263 262 267 270 271 273 273 276 278 280
232 236 235 233 238 241 243 245 245 248 251 254 254 255 258 260 258 260 264 262 260 261 264 265 267 266 266 267 269 269 270 270 271 270 267 266 267 272 274 275 273 272 271
237 237 240 241 240 242 245 248 249 253 255 257 255 257 259 260 261 262 263 263 265 268 273 270 269 269 269 269 271 271 272 273 275 275 274 273 273 275 276 277 277 275 274
237 239 240 244 247 247 246 248 250 253 256 258 256 257 258 258 261 265 263 263 267 271 275 275 272 271 272 272 272 272 272 274 272 273 274 274 274 275 277 278 278 278 279
236 239 241 243 246 249 250 250 252 256 259 257 255 256 258 260 262 265 266 268 270 274 276 276 274 274 275 275 276 277 278 277 278 277 278 277 277 278 277 278 277 277 278
235 239 242 244 244 246 250 252 255 256 256 258 260 260 262 264 264 266 269 271 272 275 278 276 273 274 277 277 276 276 278 279 279 278 278 279 280 280 280 278 278 279 278
240 240 240 243 243 251 252 253 254 256 257 257 259 261 264 267 267 268 270 272 272 272 273 274 274 274 274 276 276 276 277 278 279 279 279 279 280 280 281 281 281 279 278
240 245 239 236 241 247 249 252 255 256 258 260 263 266 268 270 270 270 270 271 274 273 271 272 273 274 277 277 276 276 276 276 277 279 280 280 280 280 281 281 281 278 278
242 242 238 238 243 246 253 255 257 258 261 263 266 266 267 267 267 265 265 268 270 271 272 274 275 277 277 277 277 279 281 281 281 280 280 280 281 280 279 279 278 278 277
244 246 249 250 251 251 253 254 257 258 260 262 263 264 265 265 265 265 267 269 269 271 272 273 274 274 275 276 278 279 277 278 278 277 275 279 278 278 275 274 273 273 274
242 244 246 247 249 251 255 256 256 258 259 262 263 264 266 267 268 270 269 268 269 271 274 274 273 276 277 278 280 281 282 280 281 279 279 279 280 279 278 277 278 280 279
246 247 248 249 250 252 254 257 259 259 260 261 264 268 270 269 270 269 271 274 276 276 279 282 283 284 283 282 284 284 282 285 284 282 280 280 280 280 280 278 277 279 280
244 246 248 250 251 254 255 257 258 260 262 265 268 272 273 275 277 278 281 282 283 282 282 283 285 284 283 284 286 286 286 287 287 285 282 282 281 282 282 282 282 282 282
247 249 250 252 254 256 258 261 263 265 266 269 271 274 275 275 276 278 279 280 281 283 282 282 284 285 285 287 287 286 286 286 286 285 285 284 285 284 283 283 282 282 282
251 253 255 257 258 260 262 264 265 267 269 270 272 273 274 276 277 278 280 281 281 282 282 283 284 285 285 286 286 286 286 285 286 287 287 285 285 284 284 284 283 283 283
254 256 257 258 259 261 262 264 266 267 269 271 271 273 274 275 276 279 280 281 281 282 282 283 286 286 285 285 284 285 287 286 286 286 286 286 285 285 284 285 284 283 283
258 259 260 261 263 264 265 267 269 269 268 270 272 272 273 275 276 276 277 279 281 282 282 283 283 283 284 284 284 286 286 286 286 286 286 287 287 286 285 285 284 284 284
261 262 263 264 265 265 267 269 270 271 273 274 274 274 274 276 276 277 278 279 279 279 282 281 282 283 285 285 286 286 287 287 287 287 287 287 286 286 286 286 286 287 286
261 262 264 266 268 269 271 272 273 273 272 272 273 273 273 274 275 276 276 276 278 279 281 283 284 285 285 286 287 288 288 287 286 285 285 286 287 287 287 287 287 287 287
268 269 271 271 271 271 271 271 271 271 272 273 273 274 275 276 277 278 279 280 282 282 283 283 284 285 287 287 286 286 285 286 286 287 287 288 288 288 288 287 286 285 285
268 269 271 272 272 273 273 274 275 276 276 277 277 278 279 279 280 281 281 281 282 283 284 284 284 284 284 284 285 286 287 287 288 288 288 287 287 286 286 286 286 287 286
270 271 272 273 274 274 275 275 276 276 277 278 278 279 280 280 282 283 282 282 282 283 283 283 284 284 285 286 287 287 287 287 286 286 285 285 285 285 285 286 286 287 287